Weather History for Bluefield, WV

Change the Weather History Date:

Monday, July 1, 2013

  Actual Average Record
Temperature  
Mean Temperature 74 °F 72 °F  
Max Temperature 81 °F 81 °F 90 °F (2012)
Min Temperature 66 °F 64 °F 45 °F (1988)
Degree Days  
Heating Degree Days 0 0  
Month to date heating degree days 0 0  
Since 1 June heating degree days 0 22  
Since 1 July heating degree days 0 0  
Cooling Degree Days 9 8  
Month to date cooling degree days 9 8  
Year to date cooling degree days 314 265  
Since 1 June cooling degree days 200 174  
Growing Degree Days 23 (Base 50)    
Moisture  
Dew Point 62 °F    
Average Humidity 68    
Maximum Humidity 81    
Minimum Humidity 54    
Precipitation  
Precipitation 0.17 in 0.14 in 1.43 in (1986)
Month to date precipitation 0.17 0.14  
Year to date precipitation 23.53 21.10  
Snow  
Snow 0.00 in - - ()
Month to date snowfall 0.0  
Since 1 June snowfall 0.0  
Since 1 July snowfall 0.0  
Snow Depth 0.00 in    
Sea Level Pressure  
Sea Level Pressure 29.90 in    
Wind  
Wind Speed 5 mph (SSE)    
Max Wind Speed 14 mph    
Max Gust Speed 23 mph    
Visibility 10 miles    
Events Rain    
T = Trace of Precipitation, MM = Missing Value Source: NWS Daily Summary

Daily Weather History Graph

Daily Weather History Graph

Search for Another Location

Airport:

Trip Planner

Search our weather history database for the weather conditions in past years. The results will help you decide how hot, cold, wet, or windy it might be!

Date:

Astronomy

Jul. 01, 2013 Rise Set
Actual Time 6:08 AM EDT 8:49 PM EDT
Civil Twilight 5:37 AM EDT 9:20 PM EDT
Nautical Twilight 4:58 AM EDT 9:58 PM EDT
Astronomical Twilight 4:15 AM EDT 10:41 PM EDT
Moon 1:32 AM EDT (7/1) 3:07 PM EDT (7/1)
Length of Visible Light 15h 42m
Length of Day
14h 41m
Waning Crescent, 35% of the Moon is Illuminated
Jul 1
Waning Crescent
Jul 8
New
Jul 15
First Quarter
Jul 22
Full
Jul 29
Last Quarter

Hourly Weather History & Observations

Time (EDT) Temp. Heat Index Dew Point Humidity Pressure Visibility Wind Dir Wind Speed Gust Speed Precip Events Conditions
12:52 AM 68.0 °F - 62.1 °F 81% 29.80 in 10.0 mi SSE 9.2 mph 18.4 mph 0.02 in   Mostly Cloudy
1:50 AM 68.0 °F - 62.6 °F 83% 29.93 in 10.0 mi WNW 3.5 mph - 0.00 in   Overcast
1:52 AM 68.0 °F - 61.0 °F 78% 29.80 in 10.0 mi WNW 3.5 mph - 0.00 in   Overcast
2:19 AM 66.2 °F - 60.8 °F 83% 29.93 in 10.0 mi Calm Calm - 0.01 in Rain Light Rain
2:52 AM 66.9 °F - 60.1 °F 79% 29.79 in 10.0 mi Calm Calm - 0.04 in Rain Light Rain
3:10 AM 66.2 °F - 60.8 °F 83% 29.91 in 10.0 mi Calm Calm - 0.01 in Rain Light Rain
3:39 AM 66.2 °F - 62.6 °F 88% 29.91 in 2.0 mi Calm Calm - 0.02 in Rain Light Rain
3:52 AM 66.0 °F - 61.0 °F 84% 29.79 in 10.0 mi Calm Calm - 0.02 in   Overcast
4:50 AM 66.2 °F - 60.8 °F 83% 29.91 in 10.0 mi SSE 3.5 mph - N/A   Overcast
4:52 AM 66.0 °F - 61.0 °F 84% 29.79 in 10.0 mi Variable 3.5 mph - N/A   Overcast
5:52 AM 66.0 °F - 61.0 °F 84% 29.82 in 5.0 mi Calm Calm - 0.06 in Rain Rain
6:52 AM 66.0 °F - 60.1 °F 81% 29.82 in 10.0 mi Calm Calm - 0.01 in   Scattered Clouds
7:36 AM 66.2 °F - 60.8 °F 83% 29.94 in 10.0 mi ESE 4.6 mph - N/A   Scattered Clouds
7:52 AM 66.9 °F - 61.0 °F 81% 29.83 in 10.0 mi Variable 3.5 mph - N/A   Scattered Clouds
8:04 AM 66.2 °F - 60.8 °F 83% 29.95 in 10.0 mi Calm Calm - N/A   Mostly Cloudy
8:12 AM 68.0 °F - 60.8 °F 78% 29.95 in 10.0 mi SSE 3.5 mph - N/A   Mostly Cloudy
8:52 AM 68.0 °F - 61.0 °F 78% 29.85 in 10.0 mi South 9.2 mph - N/A   Overcast
9:52 AM 72.0 °F - 62.1 °F 71% 29.85 in 10.0 mi Variable 4.6 mph - N/A   Mostly Cloudy
10:27 AM 71.6 °F - 62.6 °F 73% 29.97 in 10.0 mi SE 5.8 mph - N/A   Mostly Cloudy
10:34 AM 71.6 °F - 62.6 °F 73% 29.97 in 10.0 mi SE 4.6 mph - N/A   Mostly Cloudy
10:41 AM 71.6 °F - 62.6 °F 73% 29.97 in 10.0 mi South 4.6 mph - N/A   Mostly Cloudy
10:52 AM 73.0 °F - 62.1 °F 68% 29.88 in 10.0 mi Variable 3.5 mph - N/A   Mostly Cloudy
11:14 AM 75.2 °F - 62.6 °F 65% 29.98 in 10.0 mi Variable 4.6 mph - N/A   Overcast
11:52 AM 75.0 °F - 62.1 °F 64% 29.88 in 10.0 mi Variable 4.6 mph - N/A   Overcast
12:27 PM 77.0 °F - 62.6 °F 61% 29.98 in 10.0 mi Variable 4.6 mph - N/A   Mostly Cloudy
12:52 PM 79.0 °F - 62.1 °F 56% 29.86 in 10.0 mi Variable 5.8 mph - N/A   Partly Cloudy
1:52 PM 80.1 °F 81.2 °F 62.1 °F 54% 29.85 in 10.0 mi SE 3.5 mph - N/A   Mostly Cloudy
2:52 PM 80.1 °F 81.5 °F 63.0 °F 56% 29.84 in 10.0 mi East 8.1 mph - N/A   Partly Cloudy
3:52 PM 79.0 °F - 63.0 °F 58% 29.85 in 10.0 mi Variable 5.8 mph 16.1 mph N/A   Partly Cloudy
4:52 PM 78.1 °F - 62.1 °F 58% 29.85 in 10.0 mi South 10.4 mph 16.1 mph N/A   Clear
5:52 PM 75.0 °F - 62.1 °F 64% 29.86 in 10.0 mi SSE 11.5 mph 20.7 mph N/A   Mostly Cloudy
6:52 PM 75.0 °F - 61.0 °F 62% 29.86 in 10.0 mi SE 10.4 mph 17.3 mph 0.00 in   Overcast
7:52 PM 73.9 °F - 62.1 °F 66% 29.89 in 10.0 mi Variable 5.8 mph - N/A   Overcast
8:14 PM 73.4 °F - 60.8 °F 65% 30.01 in 10.0 mi Variable 5.8 mph - N/A   Overcast
8:40 PM 73.4 °F - 60.8 °F 65% 30.01 in 10.0 mi SE 10.4 mph 19.6 mph N/A   Mostly Cloudy
8:52 PM 73.0 °F - 61.0 °F 66% 29.91 in 10.0 mi Variable 6.9 mph 23.0 mph N/A   Mostly Cloudy
9:52 PM 73.0 °F - 61.0 °F 66% 29.91 in 10.0 mi SSE 6.9 mph 16.1 mph N/A   Overcast
10:47 PM 71.6 °F - 62.6 °F 73% 30.06 in 10.0 mi WSW 9.2 mph - 0.00 in Rain Light Rain
10:52 PM 70.0 °F - 62.1 °F 76% 29.95 in 10.0 mi WSW 6.9 mph - 0.01 in Rain Light Rain
11:01 PM 68.0 °F - 60.8 °F 78% 30.05 in 8.0 mi WSW 4.6 mph - 0.01 in Rain Light Rain
11:52 PM 70.0 °F - 62.1 °F 76% 29.93 in 10.0 mi Variable 3.5 mph - 0.03 in   Mostly Cloudy